User: anonymous   Login
Location: Unspecified
(0.0000°N, 0.0000°E)
Time: 16:01:57
(UTC+00:00)
Language:

CUBEBUG 2 - Orbit

View from above orbital plane
View from above orbital plane
View from above satellite
View from above satellite

Ground track
Ground track

The orbit data is extracted from the following two-line orbital elements,

1 39440U 13066AA  18344.97611517  .00000234  00000-0  39718-4 0  9994
2 39440  97.5987 349.6845 0079927 342.3233  17.5199 14.75764119271995
Epoch (UTC): 10 December 2018 23:25:36
Eccentricity: 0.0079927
inclination: 97.5987°
perigee height: 586 km
apogee height: 699 km
right ascension of ascending node: 349.6845°
argument of perigee: 342.3233°
revolutions per day: 14.75764119
mean anomaly at epoch: 17.5199°
orbit number at epoch: 27199

The dashed part of the orbit path shows where the satellite is in the earth's shadow,  

DLR